カタログに戻る

SHEFFER YU.P.

運用中ナビゲーションSSO
NORAD 57208·PAYLOAD·🇷🇺 Russia
この衛星名は、まだ公式ソースで確認されていません。

打ち上げ Jun 27, 2023 から Vostochny Cosmodrome

Loading…

次のパス (今後24時間)

TLE

最新Source: Space-Track

元期: Sep 14, 2026, 12:48 UTC

1 57208U 23091AU  26257.53400989  .00017810  00000-0  41946-3 0  9991
2 57208  97.5006 330.8659 0007087 104.8404 255.3628 15.41975763178542

AllMySatでSHEFFER YU.P.をリアルタイム追跡

Download on the App Store